Regional Weather Roundup
Issued by NWS Portland, ME

Current Version | Previous Version | Text Only | Print | Product List | Glossary On
Versions: 1 2 3 4 5 6 7 8 9 10 11 12 13 14 15 16 17 18 19 20 21 22 23 24 25 26 27 28 29 30 31 32 33 34 35 36 37 38 39 40 41 42 43 44 45 46 47 48 49 50
000
ASUS41 KGYX 212210
RWRGYX
WEATHER ROUNDUP FOR MAINE AND NEW HAMPSHIRE
NATIONAL WEATHER SERVICE GRAY ME
600 PM EDT SUN SEP 21 2014

MEZ002-005-006-010-012-015-018-020-021-024-026-027-029-212300-
MAINE

CITY           SKY/WX    TMP DP  RH WIND       PRES   REMARKS
PORTLAND       FOG       64  63  96 S6        29.71F VSB 1/4
SANFORD        CLOUDY    68  63  83 SE5       29.70F
BAR HARBOR     CLOUDY    64  64 100 S5        29.77F VSB 1/2
WISCASSET      FOG       65  64  97 CALM      29.74F VSB 1/4
ROCKLAND       CLOUDY    63  61  94 E6        29.74F VSB<1/4
FRYEBURG       CLOUDY    67  65  93 CALM      29.69F
LEWISTONAUBURN CLOUDY    64  63  94 SE9       29.71F VSB 1/2
AUGUSTA        FOG       66  66 100 S7        29.73F VSB 1/4
WATERVILLE     CLOUDY    68  63  83 S6        29.68F
BANGOR         DRZL/FOG  67  65  93 SW8       29.75F VSB 3/4
GREENVILLE       N/A     64  63  96 VRB7      29.72F
MILLINOCKET    MOCLDY    69  63  81 S5        29.74F
HOULTON        MOCLDY    70  60  70 VRB7      29.74F
PRESQUE ISLE   CLOUDY    70  57  64 S13       29.72S
FRENCHVILLE    PTCLDY    67  60  78 S14G21    29.68F
CARIBOU        CLOUDY    69  59  70 S12G23    29.72S
$$

NHZ002-005-008-009-011-012-014-212300-
NEW HAMPSHIRE

CITY           SKY/WX    TMP DP  RH WIND       PRES   REMARKS
PORTSMOUTH     CLOUDY    66  64  94 SE8       29.67F FOG
ROCHESTER      CLOUDY    69  66  90 SE8       29.68F
NASHUA         CLOUDY    75  71  87 CALM      29.65F
MANCHESTER     CLOUDY    75  67  76 SE6       29.64F
CONCORD        CLOUDY    74  70  87 SE3       29.65F
LACONIA        CLOUDY    73  66  78 SE6       29.65F
PLYMOUTH       MOCLDY    71  69  93 E3        29.66F
BERLIN         MOCLDY    70  63  78 SE9       29.68F
WHITEFIELD     CLOUDY    74  61  63 VRB5      29.66F
JAFFREY        CLOUDY    71  67  87 S6        29.68F
LEBANON        CLOUDY    74  64  71 CALM      29.62F
MT WASHINGTON  FOG       52  52 100 SW33G40     N/A  VSB 0
$$

VTZ005-007-008-212300-
VERMONT

CITY           SKY/WX    TMP DP  RH WIND       PRES   REMARKS
ST JOHNSBURY     N/A     72  63  73 MISG      29.61F
MONTPELIER     MOCLDY    72  63  73 S14G21    29.66F
BURLINGTON     CLOUDY    77  58  51 SE7       29.55F
$$

MAZ007-012-024-CTZ003-RIZ002-NYZ038-NYZ072-212300-
SOUTHERN NEW ENGLAND AND NY

CITY           SKY/WX    TMP DP  RH WIND       PRES   REMARKS
BOSTON         CLOUDY    68  65  90 E10       29.65F
WORCESTER      CLOUDY    68  66  93 SW6       29.68F
NANTUCKET      LGT RAIN  65  64  97 SE8       29.66F FOG
PROVIDENCE     CLOUDY    70  69  97 SE7       29.66F FOG
HARTFORD       CLOUDY    75  68  78 S7        29.62F
ALBANY         MOCLDY    78  64  61 S13G20    29.59F
NEW YORK CITY  CLOUDY    77  66  68 E6        29.62F
$$

ANZ081-ANZ082-ANZ150-NHZ014-MEZ023>029-212300-
COASTAL MARINE OBSERVATIONS

STATION/POSITION TIME  TEMP    WIND        PRES    WAVE
                       AIR SEA DIR/SP/G            HT/PER
                 (UTC) (F)     (DEG/KT/KT) (MB)    (FT/S)
MOUNT DESERT ROC 2200   59                 1007.4F
MATINICUS ROCK   2200          130/ 12/ 13 1006.4F
PORTLAND WX BUOY 2150   62 59  140/ 10/ 12 1005.5F   3/ 5
WELLS            2100   63 60  180/  4/  7 1005.3F
ISLE OF SHOALS   2200   63     130/ 17/ 19 1003.8F
JEFFREYS LEDGE   2121      61                N/A     2/11
CASHES LEDGE BUO 2150   64 63              1005.9F   3/ 8
$$

.............KEY..............
   WCI - WIND CHILL
   TC  - TEMPERATURE IN CELSIUS
   VSB - VISIBILITY IN MILES
   HX  - HEAT INDEX
   FAIR- INDICATES FEW OR NO CLOUDS BELOW 12,000 FT, WITH NO
         SIGNIFICANT WEATHER AND/OR OBSTRUCTIONS TO VISIBILITY.





USA.gov is the U.S. government's official web portal to all federal, state and local government web resources and services.